Location: Bathurst
(33.4193°S, 149.5775°E)
Time: 07:09:34
(UTC+11:00)

Hubble Space Telescope - Visible Passes

Search period start: 20 February 2018 00:00
Search period end: 02 March 2018 00:00
Orbit: 537 x 541 km, 28.5° (Epoch: 18 February)

Date Brightness Start Highest point End Pass type
(mag) Time Alt. Az. Time Alt. Az. Time Alt. Az.
20 Feb 1.6 21:01:24 10° WNW 21:05:16 38° N 21:06:42 28° NE visible
21 Feb 1.7 20:51:09 10° WNW 20:54:57 35° N 20:56:54 22° NE visible
22 Feb 1.9 20:40:55 10° WNW 20:44:38 31° NNW 20:47:07 17° NE visible
23 Feb 2.2 20:30:44 10° WNW 20:34:18 27° NNW 20:37:21 13° NE visible
24 Feb 2.5 20:20:35 10° WNW 20:23:57 24° NNW 20:27:19 10° NE visible
25 Feb 2.7 20:10:30 10° WNW 20:13:36 20° NNW 20:16:42 10° NNE visible
